Volver al catálogo

SL-8 R/B

ActivoPO
NORAD 11804·ROCKET BODY·🇷🇺 Russia

Lanzado May 20, 1980 desde Plesetsk Cosmodrome

Loading…

Próximos Pases (próximas 24 horas)

TLE

ActualizadoSource: Space-Track

Época: Sep 14, 2026, 07:44 UTC

1 11804U 80039B   26257.32262623  .00000134  00000-0  12132-3 0  9992
2 11804  82.9391 104.6843 0021168 156.1619 204.0524 13.76600509325522

Sigue SL-8 R/B en tiempo real con AllMySat

Download on the App Store